Location: Archemont
(49.1579°N, 1.7598°E)
Time: 21:03:12
(UTC+00:00)

Altair - Pass Details

Date: 19 April 2024
Orbit: 1501 x 1682 km, 47.2° (Epoch: 19 May)

Event Time Altitude Azimuth Distance (km) Brightness Sun altitude
Rises 17:50:26 0° 206° (SSW) 4,918 10.4 8.9°
Reaches altitude 10° 17:54:00 10° 197° (SSW) 3,923 9.8 8.4°
Maximum altitude 18:02:35 34° 138° (SE) 2,494 8.3 7.0°
Drops below altitude 10° 18:10:58 10° 79° (E) 3,839 9.0 5.6°
Sets 18:14:24 0° 71° (ENE) 4,801 9.6 5.1°
